[[{"header":{"parameterUnit":"m.s-1","parameterCategory":2,"la1":30.2991,"la2":30.254,"lo1":-89.0895,"lo2":-89.0444,"dy":0.0017,"dx":0.0017,"nx":28,"ny":28,"refTime":"2024-09-02T09:00:00:Z","depth":"0","parameterNumber":2,"parameterNumberName":"U-component_of_CURRENTS"},"data":[0,0,0,0,0,0,0,0,0,0,0,0,0,0,0,0,0,0,0,0,0,0,0,0,0,0,0,0,0,0,0,0,0,0,0,0,0,0,0,0,0,0,0,0,0,0,0,0,0,0,0,0,0,0,0,0,0,0,-0.2766,-0.2766,0,-0.2771,-0.2771,-0.2771,-0.2795,-0.2795,-0.2796,-0.2796,-0.2748,-0.2746,-0.2744,0,0,0,0,0,0,0,0,0,0,0,0,0,-0.2707,-0.2709,-0.2766,-0.2766,-0.2766,-0.2771,-0.2771,-0.2771,-0.2794,-0.2795,-0.2796,-0.2797,-0.2748,-0.2746,-0.2744,0,0,0,0,0,0,0,0,0,0,0,0,0,-0.2724,-0.2709,-0.2766,-0.2779,-0.278,-0.2771,-0.2771,-0.2771,-0.2794,-0.2795,-0.2796,-0.2797,-0.2749,-0.2747,-0.2744,-0.2708,0,0,-0.2735,-0.2734,0,0,0,0,0,0,0,0,-0.2723,-0.2726,-0.2777,-0.2778,-0.2779,-0.2783,-0.2732,-0.2747,-0.2794,-0.2788,-0.2796,-0.2797,-0.2754,-0.2751,-0.275,-0.2706,-0.2704,-0.2735,-0.2733,-0.2732,-0.2731,0,0,0,0,0,0,0,-0.2722,-0.2726,-0.2767,-0.2777,-0.2778,-0.276,-0.2764,-0.2735,-0.2765,-0.2789,-0.2791,-0.2792,-0.2755,-0.2753,-0.2749,-0.2703,-0.2735,-0.2733,-0.2731,-0.273,-0.2653,-0.2653,0,0,0,0,0,0,-0.2726,-0.2725,-0.2767,-0.2767,-0.2754,-0.2761,-0.2765,-0.2781,-0.2766,-0.2766,-0.2791,-0.2793,-0.2757,-0.2752,-0.2747,-0.2744,-0.2732,-0.273,-0.2728,-0.2653,-0.2653,-0.2653,0,0,0,0,0,0,-0.2724,-0.273,-0.2767,-0.2746,-0.2749,-0.2762,-0.2778,-0.278,-0.2783,-0.2769,-0.2767,-0.2792,-0.2758,-0.2751,-0.2739,-0.2741,-0.2728,-0.2726,-0.2654,-0.2653,-0.2653,-0.2711,0,0,0,0,0,0,-0.2723,-0.273,-0.2734,-0.2747,-0.2751,-0.2779,-0.2777,-0.278,-0.2782,-0.2785,-0.2768,-0.2765,-0.2758,-0.2744,-0.2736,-0.2737,-0.2724,-0.2654,-0.2654,-0.2653,-0.271,-0.2713,-0.2715,0,0,0,0,0,-0.2721,-0.2735,-0.2735,-0.2739,-0.276,-0.278,-0.2781,-0.279,-0.2781,-0.2793,-0.2781,-0.2766,-0.2734,-0.2741,-0.2733,-0.2732,-0.2655,-0.2654,-0.2653,-0.2708,-0.2712,-0.2715,0,0,0,0,0,0,-0.2705,-0.2739,-0.2739,-0.276,-0.2773,-0.2784,-0.279,-0.2787,-0.2785,-0.2783,-0.2764,-0.2761,-0.2752,-0.2726,-0.2735,-0.2706,-0.2689,-0.2687,-0.2734,-0.2737,-0.274,-0.2712,-0.2721,0,0,0,0,0,-0.2704,-0.2727,-0.2748,-0.276,-0.2771,-0.2774,-0.2778,-0.2786,-0.2788,-0.2788,-0.2778,-0.2756,-0.2738,-0.2728,-0.2712,-0.2691,-0.2644,-0.2681,-0.2684,-0.2687,-0.2657,-0.2609,-0.2604,-0.265,-0.265,-0.265,0,0,-0.2695,-0.2717,-0.2726,-0.2758,-0.2766,-0.2781,-0.278,-0.2795,-0.2802,-0.2779,-0.2782,-0.2768,-0.2736,-0.2728,-0.2719,-0.2709,-0.2651,-0.2686,-0.2689,-0.2656,-0.2607,-0.2603,-0.2599,-0.2649,-0.2649,-0.265,0,0,-0.2689,-0.2716,-0.273,-0.2747,-0.2769,-0.2783,-0.2788,-0.2805,-0.2812,-0.2819,-0.2797,-0.2774,-0.2765,-0.2732,-0.2715,-0.271,-0.2672,-0.2715,-0.2702,-0.2658,-0.2653,-0.2649,-0.2595,-0.2585,-0.2712,-0.2712,-0.2712,0,-0.2673,-0.2699,-0.2733,-0.2749,-0.2758,-0.2785,-0.2793,-0.2808,-0.2816,-0.2805,-0.2832,-0.2778,-0.276,-0.2709,-0.2719,-0.2715,-0.2684,-0.2701,-0.2662,-0.2656,-0.2651,-0.2596,-0.2584,-0.2715,-0.2715,-0.2714,-0.2714,0,-0.2676,-0.2695,-0.2707,-0.2741,-0.2758,-0.2775,-0.2805,-0.2817,-0.2834,-0.2834,-0.2812,-0.2794,-0.2748,-0.2752,-0.274,-0.2682,-0.2672,-0.2679,-0.2658,-0.265,-0.2592,-0.2579,-0.2719,-0.2718,-0.2717,-0.2716,0,0,-0.2619,-0.2698,-0.2693,-0.2706,-0.2756,-0.2766,-0.279,-0.2803,-0.2787,-0.2815,-0.2779,-0.2766,-0.2743,-0.2716,-0.2692,-0.2656,-0.2605,-0.2655,-0.2651,-0.2606,-0.2502,-0.2336,-0.2305,-0.2621,-0.2619,-0.2617,-0.2482,0,-0.2599,-0.264,-0.2679,-0.2694,-0.2712,-0.2749,-0.2759,-0.277,-0.2788,-0.2767,-0.2748,-0.2715,-0.2736,-0.2705,-0.2677,-0.2606,-0.2572,-0.264,-0.2508,-0.2503,-0.2361,-0.2284,-0.2187,-0.2043,-0.2469,-0.2466,-0.2465,0,-0.2559,-0.2598,-0.2628,-0.2667,-0.2673,-0.2688,-0.2693,-0.2706,-0.2696,-0.2695,-0.2669,-0.2662,-0.2589,-0.2627,-0.2513,-0.2562,-0.2529,-0.2497,-0.2492,-0.2295,-0.2309,-0.2115,-0.2003,-0.1985,-0.2444,-0.2446,-0.2447,0,-0.2482,-0.2541,-0.257,-0.2586,-0.2644,-0.2645,-0.2669,-0.2673,-0.2649,-0.2633,-0.2591,-0.2559,-0.2485,-0.2467,-0.2393,-0.246,-0.2262,-0.2348,-0.2172,-0.2161,-0.2021,-0.1999,-0.1869,-0.2276,-0.2276,-0.2277,-0.2277,0,-0.2434,-0.2435,-0.254,-0.2545,-0.2537,-0.2597,-0.2564,-0.2578,-0.2557,-0.2469,-0.2531,-0.2425,-0.2442,-0.2344,-0.2341,-0.2158,-0.2213,-0.2118,-0.2092,-0.2038,-0.202,-0.1951,-0.1991,-0.2272,-0.2273,-0.2274,-0.2275,0,-0.2319,-0.2402,-0.2414,-0.2487,-0.2499,-0.2486,-0.2489,-0.2443,-0.2457,-0.2337,-0.2318,-0.2279,-0.2138,-0.2131,-0.204,-0.2019,-0.186,-0.186,-0.1777,-0.1741,-0.1572,-0.1619,-0.1415,-0.1386,-0.1653,-0.1648,-0.1643,0,-0.2267,-0.2276,-0.2342,-0.2331,-0.2359,-0.2358,-0.2323,-0.2364,-0.2293,-0.2203,-0.2098,-0.199,-0.1847,-0.1659,-0.1606,-0.1529,-0.1609,-0.1402,-0.1504,-0.1481,-0.1519,-0.1582,-0.1582,-0.1368,-0.1361,-0.1356,-0.1352,0,-0.2138,-0.2171,-0.2184,-0.2173,-0.2155,-0.2125,-0.2087,-0.2026,-0.2008,-0.1919,-0.1742,-0.1653,-0.1468,-0.1308,-0.1211,-0.1186,-0.1344,-0.1288,-0.1296,-0.1266,-0.1295,-0.1283,-0.1552,-0.1306,-0.131,-0.1314,-0.1316,-0.1318,-0.2005,-0.1988,-0.2007,-0.1973,-0.1947,-0.1865,-0.1776,-0.1731,-0.1612,-0.144,-0.1422,-0.123,-0.1114,-0.0956,-0.0912,-0.0817,-0.0962,-0.0853,-0.0909,-0.0973,-0.093,-0.1059,-0.0762,-0.0763,-0.0765,-0.0766,-0.0767,0,-0.181,-0.1816,-0.1792,-0.1744,-0.1643,-0.1697,-0.1569,-0.1451,-0.1262,-0.116,-0.1019,-0.0801,-0.0669,-0.062,-0.0525,-0.0487,-0.0569,-0.0499,-0.0624,-0.0647,-0.0767,-0.0738,-0.0382,-0.0382,-0.0382,-0.0382,-0.0382,-0.0382,-0.1697,-0.1626,-0.1631,-0.1444,-0.1407,-0.121,-0.1113,-0.099,-0.0877,-0.0637,-0.0491,-0.0437,-0.0393,-0.0361,-0.0324,-0.0323,-0.0402,-0.0338,-0.042,-0.0575,-0.0617,-0.0657,-0.0637,-0.0266,-0.0266,-0.0289,-0.0289,-0.0289]},{"header":{"parameterUnit":"m.s-1","parameterCategory":2,"la1":30.2991,"la2":30.254,"lo1":-89.0895,"lo2":-89.0444,"dy":0.0017,"dx":0.0017,"nx":28,"ny":28,"refTime":"2024-09-02T09:00:00:Z","depth":"0","parameterNumber":3,"parameterNumberName":"V-component_of_CURRENTS"},"data":[0,0,0,0,0,0,0,0,0,0,0,0,0,0,0,0,0,0,0,0,0,0,0,0,0,0,0,0,0,0,0,0,0,0,0,0,0,0,0,0,0,0,0,0,0,0,0,0,0,0,0,0,0,0,0,0,0,0,0.0057,0.0058,0,0.0108,0.0109,0.0109,0.0137,0.0137,0.0137,0.0138,0.0234,0.0236,0.0238,0,0,0,0,0,0,0,0,0,0,0,0,0,-0.0042,-0.0041,0.0057,0.0058,0.0059,0.0108,0.0109,0.0109,0.0137,0.0137,0.0137,0.0138,0.0233,0.0235,0.0238,0,0,0,0,0,0,0,0,0,0,0,0,0,0.0001,-0.004,0.0057,0.0081,0.0084,0.0108,0.0109,0.0109,0.0136,0.0137,0.0137,0.0138,0.0232,0.0235,0.0239,0.0249,0,0,0.0249,0.025,0,0,0,0,0,0,0,0,-0.0001,0.0005,0.0076,0.0079,0.0083,0.0119,0.0109,0.0159,0.0136,0.0113,0.0138,0.0138,0.0201,0.0207,0.0211,0.0254,0.0258,0.0249,0.0251,0.0253,0.0254,0,0,0,0,0,0,0,-0.0004,0.0002,0.0074,0.0077,0.0081,0.008,0.0087,0.0118,0.0152,0.0115,0.0118,0.0128,0.0203,0.0207,0.0213,0.0259,0.0249,0.0252,0.0254,0.0255,0.036,0.0361,0,0,0,0,0,0,-0.0003,-0.0,0.0073,0.0076,0.0044,0.0082,0.0089,0.0104,0.0151,0.0159,0.0128,0.013,0.0201,0.0209,0.0217,0.027,0.0253,0.0256,0.0258,0.0359,0.036,0.0361,0,0,0,0,0,0,-0.0006,0.0003,0.0071,0.0041,0.005,0.0084,0.01,0.0105,0.011,0.0161,0.0169,0.0128,0.0202,0.0212,0.0256,0.0273,0.0257,0.026,0.0358,0.036,0.0361,0.0354,0,0,0,0,0,0,-0.0009,0.0002,0.0,0.0041,0.0052,0.0084,0.01,0.0106,0.0117,0.012,0.0164,0.0173,0.0203,0.0251,0.0259,0.0277,0.0263,0.0357,0.0359,0.036,0.0353,0.0355,0.0356,0,0,0,0,0,-0.0012,-0.0015,-0.0,0.0008,0.0053,0.0084,0.0089,0.0112,0.0117,0.0118,0.0157,0.0172,0.0266,0.0254,0.0264,0.0283,0.0357,0.0358,0.036,0.0352,0.0354,0.0356,0,0,0,0,0,0,-0.0064,-0.0011,0.0006,0.0019,0.005,0.009,0.0088,0.0107,0.0135,0.0138,0.0181,0.0194,0.0236,0.026,0.0246,0.0318,0.0314,0.0317,0.0305,0.0307,0.0308,0.0293,0.0266,0,0,0,0,0,-0.0074,-0.0063,-0.0009,-0.0004,0.0013,0.0049,0.0059,0.0081,0.0117,0.0128,0.0162,0.0204,0.0249,0.0277,0.031,0.0352,0.0361,0.0371,0.0372,0.0373,0.0368,0.0434,0.044,0.0367,0.0367,0.0367,0,0,-0.0095,-0.0065,-0.006,-0.0015,0.0008,0.0033,0.0055,0.0073,0.0101,0.0136,0.017,0.0203,0.0258,0.0305,0.0327,0.0331,0.0388,0.0375,0.0376,0.037,0.0436,0.0443,0.045,0.0368,0.0368,0.0367,0,0,-0.0136,-0.0101,-0.0106,-0.0075,-0.0034,0.0006,0.0012,0.0056,0.0083,0.0125,0.016,0.0208,0.0264,0.0317,0.0352,0.0382,0.0387,0.0385,0.0392,0.0456,0.0462,0.0468,0.0439,0.0443,0.0396,0.0396,0.0396,0,-0.0167,-0.0152,-0.0106,-0.0096,-0.0066,-0.0005,0.001,0.005,0.0102,0.0131,0.0136,0.0229,0.0277,0.0353,0.0367,0.0386,0.0387,0.0381,0.0457,0.0464,0.047,0.044,0.0444,0.0396,0.0396,0.0396,0.0396,0,-0.0204,-0.0186,-0.0185,-0.0138,-0.0101,-0.0079,-0.0001,0.0036,0.0079,0.0121,0.0186,0.0247,0.0306,0.0333,0.0364,0.0432,0.0401,0.0444,0.0451,0.0477,0.0442,0.0447,0.0395,0.0395,0.0395,0.0395,0,0,-0.0281,-0.0222,-0.0222,-0.0194,-0.0115,-0.0083,-0.0021,0.0057,0.0099,0.0151,0.0197,0.0287,0.0307,0.0347,0.0389,0.0449,0.0488,0.0461,0.0465,0.0424,0.0555,0.0508,0.0508,0.0547,0.0549,0.0551,0.0494,0,-0.0321,-0.0309,-0.0259,-0.0223,-0.0195,-0.0103,-0.0047,0.0032,0.0103,0.016,0.0238,0.0288,0.032,0.0343,0.0411,0.0466,0.0507,0.0494,0.0542,0.0541,0.0493,0.0516,0.0545,0.0497,0.0498,0.0499,0.0499,0,-0.0372,-0.0346,-0.0333,-0.0237,-0.0217,-0.0183,-0.0065,-0.0008,0.01,0.0147,0.0213,0.0261,0.0336,0.037,0.0467,0.0452,0.05,0.0542,0.0542,0.0508,0.0505,0.0483,0.0505,0.0574,0.0506,0.0506,0.0505,0,-0.0442,-0.0386,-0.0372,-0.0346,-0.0243,-0.0208,-0.0139,-0.0026,0.003,0.0127,0.0152,0.025,0.0275,0.0374,0.0437,0.0463,0.0522,0.0578,0.0568,0.0561,0.06,0.0594,0.0697,0.0664,0.0664,0.0664,0.0664,0,-0.0493,-0.0477,-0.0408,-0.04,-0.0352,-0.0264,-0.0202,-0.0118,-0.0024,0.0023,0.0123,0.0154,0.0286,0.0332,0.0415,0.0467,0.0503,0.0556,0.0564,0.059,0.0585,0.0658,0.0682,0.0662,0.0662,0.0663,0.0663,0,-0.0572,-0.0538,-0.0511,-0.0425,-0.0392,-0.0361,-0.0244,-0.0191,-0.0113,-0.0055,-0.0035,0.0069,0.0129,0.0221,0.0348,0.041,0.0519,0.0504,0.0466,0.0473,0.055,0.0571,0.0606,0.0653,0.0496,0.0495,0.0494,0,-0.0607,-0.0613,-0.0547,-0.0514,-0.0477,-0.0411,-0.0353,-0.0249,-0.0199,-0.0112,-0.0097,-0.0036,0.0033,0.0144,0.0268,0.0369,0.0456,0.0442,0.0535,0.0548,0.0579,0.0574,0.0612,0.0554,0.0554,0.0553,0.0553,0,-0.0657,-0.0653,-0.0622,-0.0559,-0.051,-0.0449,-0.0372,-0.036,-0.0256,-0.0217,-0.0162,-0.0105,0.0002,0.0148,0.0255,0.0327,0.0486,0.0436,0.0512,0.0675,0.062,0.0669,0.0523,0.055,0.055,0.0551,0.0551,0.0551,-0.0685,-0.0678,-0.0634,-0.0565,-0.0516,-0.0472,-0.0436,-0.0376,-0.0328,-0.0203,-0.0175,0.0032,0.012,0.0298,0.0339,0.0465,0.0464,0.0562,0.0587,0.058,0.0642,0.0425,0.0434,0.0434,0.0433,0.0433,0.0433,0,-0.0685,-0.0658,-0.061,-0.0541,-0.0494,-0.0462,-0.0418,-0.0379,-0.0343,-0.0126,-0.0013,0.0326,0.0407,0.0517,0.0605,0.0658,0.0683,0.0678,0.0735,0.0774,0.0651,0.0675,0.0664,0.0664,0.0664,0.0664,0.0664,0.0664,-0.0677,-0.0635,-0.0601,-0.0511,-0.0471,-0.0418,-0.0404,-0.036,-0.0205,0.0141,0.0508,0.0765,0.0868,0.0781,0.0836,0.0833,0.0916,0.0848,0.0893,0.0867,0.0861,0.0854,0.0887,0.092,0.0921,0.1041,0.1042,0.1043]}],[{"header":{"parameterUnit":"m.s-1","parameterCategory":2,"la1":30.2991,"la2":30.254,"lo1":-89.0895,"lo2":-89.0444,"dy":0.0017,"dx":0.0017,"nx":28,"ny":28,"refTime":"2024-09-02T09:00:00:Z","depth":"2","parameterNumber":2,"parameterNumberName":"U-component_of_CURRENTS"},"data":[0,0,0,0,0,0,0,0,0,0,0,0,0,0,0,0,0,0,0,0,0,0,0,0,0,0,0,0,0,0,0,0,0,0,0,0,0,0,0,0,0,0,0,0,0,0,0,0,0,0,0,0,0,0,0,0,0,0,-0.202,-0.2021,0,-0.2023,-0.2023,-0.2023,-0.2018,-0.2018,-0.2018,-0.2019,-0.2101,-0.2103,-0.2105,0,0,0,0,0,0,0,0,0,0,0,0,0,-0.1991,-0.1991,-0.202,-0.2021,-0.2021,-0.2023,-0.2023,-0.2022,-0.2018,-0.2018,-0.2018,-0.2019,-0.2101,-0.2103,-0.2106,0,0,0,0,0,0,0,0,0,0,0,0,0,-0.1997,-0.1991,-0.202,-0.2021,-0.2021,-0.2023,-0.2023,-0.2022,-0.2018,-0.2018,-0.2018,-0.2019,-0.21,-0.2103,-0.2106,-0.2123,0,0,-0.2116,-0.2117,0,0,0,0,0,0,0,0,-0.1997,-0.1998,-0.2021,-0.2021,-0.2021,-0.2022,-0.2043,-0.2061,-0.2018,-0.2017,-0.2019,-0.2019,-0.2084,-0.2088,-0.2084,-0.2127,-0.2131,-0.2116,-0.2118,-0.2119,-0.212,0,0,0,0,0,0,0,-0.1996,-0.1998,-0.2019,-0.2021,-0.2021,-0.2014,-0.2015,-0.2045,-0.2049,-0.2017,-0.2017,-0.2021,-0.2084,-0.2081,-0.2086,-0.2132,-0.2116,-0.2119,-0.2121,-0.2122,-0.2286,-0.2289,0,0,0,0,0,0,-0.2002,-0.1997,-0.2019,-0.2019,-0.2012,-0.2014,-0.2015,-0.202,-0.2047,-0.2052,-0.2021,-0.2021,-0.2075,-0.2082,-0.2089,-0.215,-0.2119,-0.2122,-0.2124,-0.2284,-0.2287,-0.229,0,0,0,0,0,0,-0.2001,-0.2004,-0.2019,-0.201,-0.2012,-0.2015,-0.202,-0.202,-0.202,-0.205,-0.2055,-0.2022,-0.2076,-0.2085,-0.2119,-0.2152,-0.2124,-0.2127,-0.2281,-0.2285,-0.2288,-0.2247,0,0,0,0,0,0,-0.2,-0.2003,-0.2009,-0.2011,-0.2013,-0.2045,-0.202,-0.202,-0.2023,-0.2023,-0.2053,-0.206,-0.2076,-0.2114,-0.2122,-0.2156,-0.2129,-0.2278,-0.2283,-0.2287,-0.2245,-0.2249,-0.2252,0,0,0,0,0,-0.1999,-0.2008,-0.2009,-0.2012,-0.202,-0.2047,-0.2048,-0.2048,-0.2023,-0.2042,-0.2044,-0.2059,-0.2151,-0.2117,-0.2126,-0.2162,-0.2276,-0.2281,-0.2287,-0.2244,-0.2248,-0.2252,0,0,0,0,0,0,-0.1986,-0.2009,-0.201,-0.2021,-0.2045,-0.2048,-0.2052,-0.2048,-0.206,-0.2062,-0.2066,-0.2075,-0.2124,-0.2156,-0.2118,-0.2231,-0.2227,-0.2234,-0.2191,-0.2196,-0.2199,-0.2169,-0.2132,0,0,0,0,0,-0.1989,-0.2004,-0.2028,-0.2034,-0.2045,-0.2046,-0.2052,-0.2067,-0.2076,-0.208,-0.2112,-0.2143,-0.2155,-0.218,-0.222,-0.2267,-0.2236,-0.231,-0.2313,-0.2315,-0.2303,-0.2261,-0.2257,-0.2308,-0.2308,-0.2308,0,0,-0.1975,-0.1996,-0.1997,-0.2034,-0.2038,-0.2064,-0.2049,-0.2078,-0.2108,-0.2091,-0.2147,-0.2154,-0.2169,-0.222,-0.2249,-0.2249,-0.2287,-0.2322,-0.2322,-0.2309,-0.2266,-0.226,-0.2255,-0.2312,-0.2311,-0.231,0,0,-0.1974,-0.1983,-0.2003,-0.2025,-0.2066,-0.2082,-0.2092,-0.2132,-0.2159,-0.2219,-0.2193,-0.2197,-0.2286,-0.2264,-0.2263,-0.2311,-0.23,-0.2368,-0.2359,-0.2319,-0.2313,-0.2306,-0.225,-0.2239,-0.2375,-0.2375,-0.2375,0,-0.1961,-0.1987,-0.2012,-0.2041,-0.2055,-0.2087,-0.2114,-0.2149,-0.2206,-0.2217,-0.2258,-0.2281,-0.2295,-0.2258,-0.2282,-0.2311,-0.2289,-0.2327,-0.2315,-0.2308,-0.2302,-0.2246,-0.2234,-0.2373,-0.2374,-0.2374,-0.2374,0,-0.1979,-0.1997,-0.2007,-0.2054,-0.2083,-0.2113,-0.2169,-0.2217,-0.2264,-0.2291,-0.232,-0.2325,-0.2323,-0.2346,-0.2327,-0.2296,-0.2293,-0.2308,-0.2282,-0.2293,-0.2236,-0.2224,-0.2372,-0.2372,-0.2372,-0.2373,0,0,-0.1937,-0.201,-0.2008,-0.2024,-0.2094,-0.2114,-0.2176,-0.2223,-0.2226,-0.232,-0.2307,-0.2331,-0.232,-0.2317,-0.2293,-0.2265,-0.2196,-0.2279,-0.2277,-0.2182,-0.2098,-0.1976,-0.1951,-0.221,-0.2208,-0.2207,-0.2067,0,-0.1937,-0.1988,-0.2034,-0.2063,-0.2081,-0.2132,-0.2165,-0.2215,-0.2279,-0.2293,-0.2291,-0.2292,-0.2315,-0.2295,-0.2268,-0.2214,-0.2167,-0.2231,-0.2137,-0.2134,-0.199,-0.1934,-0.1823,-0.1679,-0.2055,-0.2053,-0.2052,0,-0.192,-0.1963,-0.2005,-0.2046,-0.2055,-0.2088,-0.2124,-0.2168,-0.2194,-0.2238,-0.224,-0.2248,-0.2196,-0.2228,-0.2136,-0.2183,-0.2135,-0.2102,-0.2096,-0.1984,-0.1989,-0.1738,-0.1643,-0.2032,-0.2034,-0.2035,-0.2036,0,-0.1851,-0.1919,-0.1954,-0.197,-0.2038,-0.2062,-0.2097,-0.2141,-0.2151,-0.2187,-0.2181,-0.2167,-0.2116,-0.2099,-0.2046,-0.2097,-0.1933,-0.1992,-0.1826,-0.1817,-0.17,-0.1683,-0.1903,-0.1903,-0.1903,-0.1904,-0.1904,0,-0.181,-0.1819,-0.1922,-0.1933,-0.1934,-0.2011,-0.2012,-0.2051,-0.2075,-0.203,-0.2124,-0.2056,-0.2084,-0.2008,-0.2003,-0.1851,-0.1893,-0.1786,-0.1759,-0.1686,-0.167,-0.1976,-0.1986,-0.1899,-0.19,-0.1901,-0.1902,0,-0.1694,-0.1777,-0.1792,-0.1879,-0.1897,-0.189,-0.1936,-0.1922,-0.1985,-0.1922,-0.1923,-0.1933,-0.1839,-0.1839,-0.1756,-0.1734,-0.1652,-0.1582,-0.1481,-0.1443,-0.1581,-0.1592,-0.14,-0.1394,-0.1389,-0.1385,-0.1382,0,-0.1637,-0.1645,-0.1712,-0.1716,-0.1755,-0.1773,-0.1761,-0.1845,-0.1823,-0.1813,-0.1739,-0.1676,-0.1579,-0.1438,-0.1389,-0.1319,-0.1437,-0.1175,-0.1244,-0.1528,-0.1523,-0.1542,-0.1559,-0.108,-0.1075,-0.107,-0.1066,0,-0.1508,-0.1536,-0.1553,-0.1561,-0.157,-0.1558,-0.1564,-0.1533,-0.1581,-0.155,-0.1452,-0.1396,-0.1252,-0.1107,-0.1024,-0.0998,-0.1199,-0.1074,-0.1365,-0.1225,-0.1215,-0.1215,-0.1244,-0.1025,-0.103,-0.1033,-0.1035,-0.1036,-0.1379,-0.1351,-0.1383,-0.1364,-0.1372,-0.1329,-0.1281,-0.1288,-0.1228,-0.1147,-0.1152,-0.1032,-0.1002,-0.0797,-0.0738,-0.0724,-0.0835,-0.085,-0.087,-0.0893,-0.0881,-0.0862,-0.0603,-0.0605,-0.0606,-0.0608,-0.0609,0,-0.1192,-0.1194,-0.1183,-0.116,-0.1093,-0.1169,-0.1117,-0.1055,-0.0944,-0.0884,-0.0806,-0.0661,-0.0549,-0.0548,-0.0439,-0.0428,-0.0499,-0.0434,-0.0536,-0.0574,-0.0609,-0.0589,-0.0231,-0.023,-0.0229,-0.0228,0,0,-0.1099,-0.1026,-0.1021,-0.0878,-0.087,-0.0774,-0.0727,-0.0675,-0.062,-0.0498,-0.043,-0.045,-0.0469,-0.0322,-0.0305,-0.0234,-0.0408,-0.0224,-0.0521,-0.0673,-0.0706,-0.0832,-0.0841,0,0,0,0,0]},{"header":{"parameterUnit":"m.s-1","parameterCategory":2,"la1":30.2991,"la2":30.254,"lo1":-89.0895,"lo2":-89.0444,"dy":0.0017,"dx":0.0017,"nx":28,"ny":28,"refTime":"2024-09-02T09:00:00:Z","depth":"2","parameterNumber":3,"parameterNumberName":"V-component_of_CURRENTS"},"data":[0,0,0,0,0,0,0,0,0,0,0,0,0,0,0,0,0,0,0,0,0,0,0,0,0,0,0,0,0,0,0,0,0,0,0,0,0,0,0,0,0,0,0,0,0,0,0,0,0,0,0,0,0,0,0,0,0,0,-0.016,-0.016,0,-0.0137,-0.0137,-0.0137,-0.0103,-0.0102,-0.0101,-0.01,0.0069,0.0073,0.0076,0,0,0,0,0,0,0,0,0,0,0,0,0,-0.0224,-0.0223,-0.016,-0.016,-0.0159,-0.0137,-0.0137,-0.0137,-0.0103,-0.0102,-0.01,-0.0099,0.0068,0.0072,0.0077,0,0,0,0,0,0,0,0,0,0,0,0,0,-0.0202,-0.0222,-0.016,-0.0136,-0.0133,-0.0137,-0.0137,-0.0137,-0.0103,-0.0102,-0.01,-0.0099,0.0067,0.0072,0.0077,0.0081,0,0,0.0094,0.0096,0,0,0,0,0,0,0,0,-0.0203,-0.02,-0.014,-0.0138,-0.0135,-0.0117,-0.0097,-0.0055,-0.0103,-0.0119,-0.01,-0.0098,0.0022,0.0031,0.0024,0.0089,0.0096,0.0094,0.0098,0.01,0.0101,0,0,0,0,0,0,0,-0.0204,-0.0201,-0.0155,-0.014,-0.0136,-0.0142,-0.0138,-0.009,-0.0058,-0.0118,-0.0114,-0.0105,0.0024,0.0019,0.0029,0.0099,0.0094,0.0099,0.0102,0.0104,0.0252,0.0253,0,0,0,0,0,0,-0.0198,-0.0202,-0.0156,-0.0154,-0.0161,-0.0142,-0.0137,-0.0128,-0.0061,-0.005,-0.0106,-0.0104,0.0009,0.0023,0.0035,0.008,0.01,0.0105,0.0108,0.0252,0.0253,0.0253,0,0,0,0,0,0,-0.0199,-0.0194,-0.0157,-0.0174,-0.0169,-0.0142,-0.0132,-0.0128,-0.0125,-0.0053,-0.004,-0.0106,0.0011,0.0028,0.0074,0.0087,0.0107,0.0112,0.0251,0.0252,0.0253,0.0148,0,0,0,0,0,0,-0.0201,-0.0195,-0.0196,-0.0174,-0.0168,-0.0153,-0.0133,-0.0129,-0.012,-0.0116,-0.0048,-0.0032,0.0013,0.0066,0.0079,0.0094,0.0116,0.025,0.0251,0.0253,0.0151,0.0146,0.0141,0,0,0,0,0,-0.0204,-0.0211,-0.0197,-0.0191,-0.0167,-0.0153,-0.0152,-0.013,-0.0122,-0.0123,-0.0084,-0.0034,0.0086,0.0069,0.0086,0.0103,0.0249,0.0251,0.0252,0.0153,0.0147,0.0141,0,0,0,0,0,0,-0.0243,-0.0207,-0.0191,-0.0188,-0.0167,-0.0145,-0.0151,-0.0135,-0.0111,-0.0102,-0.0042,-0.0023,0.0021,0.0079,0.006,0.0154,0.0183,0.0188,0.0102,0.0097,0.0092,0.0105,0.0121,0,0,0,0,0,-0.0251,-0.0248,-0.021,-0.0211,-0.02,-0.0177,-0.0173,-0.0152,-0.0124,-0.0113,-0.0066,-0.0007,0.0037,0.0079,0.0125,0.0172,0.0215,0.0202,0.0197,0.0193,0.0217,0.0288,0.0291,0.0259,0.0258,0.0258,0,0,-0.0269,-0.0248,-0.0247,-0.0219,-0.0206,-0.0196,-0.0172,-0.0161,-0.0142,-0.0095,-0.0063,-0.0032,0.0042,0.0084,0.0114,0.0139,0.0211,0.0195,0.0189,0.0218,0.029,0.0293,0.0296,0.026,0.0259,0.0259,0,0,-0.0308,-0.0281,-0.0293,-0.0274,-0.0244,-0.0218,-0.0213,-0.0183,-0.0157,-0.0118,-0.0091,-0.0052,0.0032,0.0072,0.0108,0.0114,0.0169,0.0135,0.0137,0.0203,0.0206,0.021,0.02,0.0204,0.0149,0.0149,0.0149,0,-0.0328,-0.033,-0.0296,-0.0297,-0.0279,-0.0228,-0.0226,-0.0195,-0.0152,-0.0126,-0.0104,-0.0015,0.0035,0.0082,0.0082,0.0103,0.0126,0.014,0.0194,0.0199,0.0205,0.0195,0.02,0.0144,0.0145,0.0145,0.0145,0,-0.0372,-0.0369,-0.0374,-0.0349,-0.0326,-0.0315,-0.0254,-0.0224,-0.0176,-0.0139,-0.0081,-0.003,0.0031,0.0047,0.0071,0.0124,0.0116,0.0159,0.0199,0.0201,0.019,0.0198,0.0137,0.0139,0.014,0.0141,0,0,-0.042,-0.0407,-0.0407,-0.0399,-0.0345,-0.0329,-0.0283,-0.0225,-0.0191,-0.0131,-0.0091,-0.0024,-0.0,0.0043,0.0066,0.0131,0.0151,0.0161,0.0167,0.0132,0.0243,0.0221,0.0226,0.0201,0.0203,0.0205,0.0194,0,-0.0459,-0.048,-0.0449,-0.0445,-0.0441,-0.0368,-0.0333,-0.027,-0.0194,-0.0143,-0.0069,-0.0022,0.0001,0.002,0.0081,0.014,0.0179,0.0147,0.0266,0.0269,0.0235,0.0239,0.0241,0.0233,0.0202,0.0203,0.0204,0,-0.0505,-0.0507,-0.0525,-0.0483,-0.0472,-0.0457,-0.0369,-0.033,-0.0234,-0.0176,-0.0108,-0.0052,0.0014,0.0052,0.016,0.0136,0.0185,0.0236,0.0238,0.0275,0.0264,0.0245,0.0249,0.0217,0.0216,0.0215,0.0214,0,-0.0557,-0.0548,-0.0562,-0.0552,-0.0506,-0.0485,-0.0443,-0.0349,-0.0297,-0.02,-0.015,-0.0065,-0.0025,0.0079,0.0163,0.0174,0.0281,0.0311,0.0326,0.032,0.0381,0.0379,0.0406,0.0406,0.0406,0.0406,0.0406,0,-0.0602,-0.0609,-0.0593,-0.0603,-0.0595,-0.0539,-0.0499,-0.0437,-0.0346,-0.0289,-0.0189,-0.013,-0.0003,0.007,0.0155,0.0242,0.0271,0.033,0.0339,0.0336,0.033,0.0387,0.0385,0.0405,0.0405,0.0405,0.0405,0,-0.0659,-0.0655,-0.067,-0.0642,-0.0628,-0.0623,-0.054,-0.0498,-0.0413,-0.0334,-0.0303,-0.018,-0.008,0.0019,0.0163,0.0216,0.0319,0.0339,0.0281,0.0285,0.0305,0.0298,0.0368,0.0367,0.0367,0.0367,0.0367,0,-0.069,-0.0714,-0.0711,-0.0711,-0.07,-0.0673,-0.0641,-0.0547,-0.0488,-0.0357,-0.0325,-0.0218,-0.0116,0.0038,0.0154,0.027,0.0291,0.0321,0.0373,0.0311,0.0312,0.0306,0.0299,0.0374,0.0374,0.0374,0.0374,0,-0.074,-0.075,-0.0757,-0.0762,-0.0746,-0.0718,-0.0663,-0.0621,-0.0505,-0.0427,-0.0309,-0.0216,-0.0079,0.0068,0.0182,0.0254,0.0309,0.0322,0.0313,0.0382,0.0317,0.0317,0.0312,0.0372,0.0373,0.0373,0.0373,0.0373,-0.0767,-0.0785,-0.0791,-0.0787,-0.0778,-0.074,-0.0692,-0.0619,-0.0528,-0.0373,-0.0309,-0.0164,-0.0039,0.0149,0.0238,0.0294,0.0312,0.0356,0.0357,0.0357,0.036,0.0299,0.0346,0.0346,0.0346,0.0346,0.0346,0,-0.0776,-0.0787,-0.0797,-0.0789,-0.0775,-0.0761,-0.068,-0.0608,-0.0496,-0.0379,-0.0244,-0.0091,0.0065,0.0162,0.027,0.0353,0.0356,0.0351,0.0363,0.0364,0.0365,0.0369,0.0356,0.0356,0.0356,0.0356,0,0,-0.0778,-0.0788,-0.079,-0.077,-0.0764,-0.0707,-0.0651,-0.0552,-0.045,-0.0299,-0.0202,-0.0052,0.007,0.0157,0.0261,0.031,0.0308,0.03,0.0288,0.0293,0.0293,0.0367,0.0374,0,0,0,0,0]}],[{"header":{"parameterUnit":"m.s-1","parameterCategory":2,"la1":30.2991,"la2":30.254,"lo1":-89.0895,"lo2":-89.0444,"dy":0.0017,"dx":0.0017,"nx":28,"ny":28,"refTime":"2024-09-02T09:00:00:Z","depth":"4","parameterNumber":2,"parameterNumberName":"U-component_of_CURRENTS"},"data":[0,0,0,0,0,0,0,0,0,0,0,0,0,0,0,0,0,0,0,0,0,0,0,0,0,0,0,0,0,0,0,0,0,0,0,0,0,0,0,0,0,0,0,0,0,0,0,0,0,0,0,0,0,0,0,0,0,0,-0.0898,-0.0897,0,-0.0896,-0.0896,-0.0896,-0.086,-0.0859,-0.0858,-0.0857,-0.0778,-0.0777,-0.0775,0,0,0,0,0,0,0,0,0,0,0,0,0,-0.0866,-0.0867,-0.0898,-0.0897,-0.0897,-0.0896,-0.0896,-0.0896,-0.086,-0.0859,-0.0857,-0.0856,-0.0778,-0.0777,-0.0775,0,0,0,0,0,0,0,0,0,0,0,0,0,-0.0875,-0.0868,-0.0898,-0.0878,-0.0877,-0.0896,-0.0896,-0.0896,-0.086,-0.0859,-0.0857,-0.0856,-0.0778,-0.0777,-0.0775,-0.0795,0,0,-0.077,-0.0769,0,0,0,0,0,0,0,0,-0.0874,-0.0876,-0.0881,-0.088,-0.0878,-0.0875,-0.0856,-0.0858,-0.0861,-0.0868,-0.0857,-0.0855,-0.0804,-0.08,-0.0805,-0.0791,-0.0788,-0.077,-0.0769,-0.0768,-0.0767,0,0,0,0,0,0,0,-0.0874,-0.0876,-0.0898,-0.0881,-0.0879,-0.0868,-0.0868,-0.0856,-0.0844,-0.0867,-0.0864,-0.0863,-0.0802,-0.0807,-0.0803,-0.0787,-0.077,-0.0768,-0.0767,-0.0766,-0.085,-0.0853,0,0,0,0,0,0,-0.0874,-0.0876,-0.0898,-0.0898,-0.0871,-0.087,-0.087,-0.0879,-0.0845,-0.0839,-0.0864,-0.0861,-0.0811,-0.0805,-0.08,-0.0843,-0.0768,-0.0766,-0.0765,-0.0847,-0.0851,-0.0854,0,0,0,0,0,0,-0.0874,-0.0877,-0.0898,-0.0885,-0.0887,-0.0872,-0.0882,-0.0879,-0.0899,-0.0844,-0.0836,-0.0888,-0.081,-0.0802,-0.0837,-0.0838,-0.0765,-0.0764,-0.0843,-0.0848,-0.0853,-0.0914,0,0,0,0,0,0,-0.0873,-0.0877,-0.0885,-0.0885,-0.0887,-0.0918,-0.0884,-0.088,-0.0899,-0.0895,-0.0862,-0.0852,-0.0808,-0.084,-0.0835,-0.0834,-0.0763,-0.0839,-0.0845,-0.0851,-0.0908,-0.092,-0.0931,0,0,0,0,0,-0.0872,-0.0882,-0.0886,-0.0889,-0.0899,-0.0919,-0.092,-0.0904,-0.0902,-0.0917,-0.0922,-0.0853,-0.0874,-0.0843,-0.0836,-0.0834,-0.0836,-0.0843,-0.0851,-0.0902,-0.0918,-0.093,0,0,0,0,0,0,-0.087,-0.088,-0.0884,-0.0896,-0.0914,-0.0913,-0.0924,-0.0927,-0.0945,-0.0949,-0.0903,-0.0896,-0.0943,-0.0896,-0.0862,-0.0885,-0.084,-0.0847,-0.0882,-0.0896,-0.0908,-0.0867,-0.0761,0,0,0,0,0,-0.0878,-0.0888,-0.0903,-0.0916,-0.0932,-0.0941,-0.0949,-0.0949,-0.0962,-0.0968,-0.0947,-0.0941,-0.0968,-0.0939,-0.0961,-0.0953,-0.092,-0.0951,-0.0963,-0.0972,-0.0942,-0.0941,-0.0948,-0.0878,-0.0878,-0.0878,0,0,-0.088,-0.0886,-0.0893,-0.0917,-0.0932,-0.0953,-0.0943,-0.0971,-0.097,-0.0957,-0.0963,-0.1007,-0.0996,-0.1017,-0.1024,-0.0962,-0.0985,-0.0982,-0.0989,-0.0953,-0.0949,-0.0955,-0.096,-0.0883,-0.0882,-0.0882,0,0,-0.0884,-0.0906,-0.0917,-0.0941,-0.0971,-0.0978,-0.0996,-0.1017,-0.1008,-0.1026,-0.1055,-0.1076,-0.1077,-0.106,-0.1054,-0.1134,-0.109,-0.1178,-0.1139,-0.114,-0.1144,-0.1147,-0.1138,-0.1139,-0.1128,-0.1128,-0.1128,0,-0.089,-0.0902,-0.0925,-0.0949,-0.0963,-0.0995,-0.1016,-0.1019,-0.1043,-0.1045,-0.1025,-0.1093,-0.1065,-0.1099,-0.1131,-0.1143,-0.1173,-0.1078,-0.1149,-0.1151,-0.1153,-0.1142,-0.1143,-0.1132,-0.1132,-0.1131,-0.1131,0,-0.0898,-0.0921,-0.0938,-0.0972,-0.0994,-0.1026,-0.1039,-0.1057,-0.1051,-0.105,-0.1098,-0.1093,-0.1109,-0.1127,-0.1136,-0.1174,-0.1207,-0.1206,-0.1098,-0.1162,-0.1149,-0.1149,-0.1138,-0.1136,-0.1135,-0.1134,0,0,-0.089,-0.0931,-0.0944,-0.0957,-0.1012,-0.1029,-0.1044,-0.1062,-0.107,-0.1074,-0.1072,-0.1104,-0.1131,-0.113,-0.1169,-0.1142,-0.1171,-0.1186,-0.1184,-0.1147,-0.1215,-0.113,-0.1121,-0.1228,-0.1228,-0.1228,-0.1207,0,-0.0896,-0.0922,-0.0946,-0.0982,-0.1003,-0.1039,-0.1046,-0.107,-0.107,-0.1081,-0.1072,-0.1109,-0.1125,-0.1156,-0.1144,-0.1203,-0.1174,-0.1177,-0.1181,-0.1179,-0.1071,-0.1117,-0.1227,-0.1206,-0.1206,-0.1206,-0.1206,0,-0.0897,-0.0915,-0.094,-0.0975,-0.0991,-0.1019,-0.1049,-0.1059,-0.1089,-0.1087,-0.1117,-0.1151,-0.116,-0.1145,-0.1176,-0.1214,-0.1211,-0.1212,-0.1211,-0.1095,-0.1092,-0.1127,-0.1204,-0.1204,-0.1204,-0.1204,-0.1204,0,-0.0864,-0.091,-0.092,-0.094,-0.0989,-0.1005,-0.1034,-0.1072,-0.1072,-0.1113,-0.1127,-0.1165,-0.1175,-0.1191,-0.1199,-0.1217,-0.1223,-0.1218,-0.1124,-0.1118,-0.1168,-0.1165,-0.1197,-0.1197,-0.1197,-0.1197,-0.1198,0,-0.0849,-0.0865,-0.0909,-0.0926,-0.0936,-0.0991,-0.1009,-0.1037,-0.1078,-0.1095,-0.1148,-0.1159,-0.1201,-0.1219,-0.1215,-0.1172,-0.1222,-0.1109,-0.1101,-0.1203,-0.1204,-0.1169,-0.1166,-0.1197,-0.1197,-0.1197,-0.1197,0,-0.0801,-0.0838,-0.0848,-0.0902,-0.092,-0.0928,-0.0982,-0.0985,-0.1059,-0.1082,-0.1101,-0.1162,-0.1174,-0.1197,-0.1201,-0.1166,-0.1135,-0.1103,-0.1212,-0.1215,-0.1024,-0.1025,-0.0969,-0.0966,-0.0963,-0.0961,-0.0959,0,-0.0771,-0.0774,-0.0813,-0.0807,-0.0833,-0.0861,-0.0869,-0.0949,-0.0966,-0.1072,-0.1072,-0.1118,-0.1145,-0.1081,-0.111,-0.107,-0.1055,-0.1044,-0.1014,-0.0998,-0.0998,-0.1003,-0.1008,-0.0954,-0.0953,-0.0953,-0.0952,0,-0.0708,-0.0724,-0.0725,-0.0713,-0.0723,-0.073,-0.0775,-0.0793,-0.0896,-0.0971,-0.1006,-0.1013,-0.1017,-0.1005,-0.0995,-0.0968,-0.1056,-0.1015,-0.1019,-0.099,-0.098,-0.0983,-0.0991,-0.0942,-0.0944,-0.0945,-0.0945,0,-0.0646,-0.0619,-0.0618,-0.0592,-0.059,-0.0596,-0.065,-0.0691,-0.0732,-0.0886,-0.0889,-0.0945,-0.1006,-0.0951,-0.0942,-0.0909,-0.087,-0.0847,-0.0859,-0.087,-0.0846,-0.0819,-0.071,0,0,0,0,0,-0.0578,-0.0529,-0.0495,-0.0475,-0.0466,-0.0483,-0.0564,-0.0636,-0.0771,-0.0759,-0.0831,-0.083,-0.0819,-0.084,-0.0774,-0.0861,-0.0861,-0.0781,-0.0839,-0.0889,-0.09,-0.088,0,0,0,0,0,0,-0.0529,-0.0488,-0.0457,-0.0367,-0.034,-0.0349,-0.0407,-0.0519,-0.0538,-0.0675,-0.066,-0.0753,-0.0734,-0.0817,-0.0741,-0.0746,-0.0762,-0.0813,-0.081,-0.0883,-0.0893,-0.0902,-0.0885,0,0,0,0,0]},{"header":{"parameterUnit":"m.s-1","parameterCategory":2,"la1":30.2991,"la2":30.254,"lo1":-89.0895,"lo2":-89.0444,"dy":0.0017,"dx":0.0017,"nx":28,"ny":28,"refTime":"2024-09-02T09:00:00:Z","depth":"4","parameterNumber":3,"parameterNumberName":"V-component_of_CURRENTS"},"data":[0,0,0,0,0,0,0,0,0,0,0,0,0,0,0,0,0,0,0,0,0,0,0,0,0,0,0,0,0,0,0,0,0,0,0,0,0,0,0,0,0,0,0,0,0,0,0,0,0,0,0,0,0,0,0,0,0,0,-0.0267,-0.0268,0,-0.0319,-0.032,-0.0321,-0.0352,-0.0352,-0.0352,-0.0351,-0.042,-0.0422,-0.0425,0,0,0,0,0,0,0,0,0,0,0,0,0,-0.0254,-0.0254,-0.0267,-0.0268,-0.0268,-0.0319,-0.032,-0.0322,-0.0352,-0.0352,-0.0351,-0.0351,-0.042,-0.0422,-0.0425,0,0,0,0,0,0,0,0,0,0,0,0,0,-0.0283,-0.0254,-0.0267,-0.0286,-0.0288,-0.0319,-0.032,-0.0322,-0.0352,-0.0352,-0.0351,-0.0351,-0.0419,-0.0422,-0.0425,-0.0454,0,0,-0.0435,-0.0436,0,0,0,0,0,0,0,0,-0.0281,-0.0284,-0.0283,-0.0284,-0.0286,-0.0325,-0.0341,-0.0365,-0.0352,-0.0333,-0.0351,-0.0351,-0.0387,-0.0393,-0.041,-0.0457,-0.046,-0.0435,-0.0437,-0.0438,-0.0439,0,0,0,0,0,0,0,-0.0279,-0.0282,-0.0293,-0.0283,-0.0285,-0.0311,-0.0315,-0.0346,-0.0366,-0.0335,-0.0336,-0.0334,-0.0389,-0.0407,-0.0412,-0.0461,-0.0435,-0.0438,-0.044,-0.0441,-0.0521,-0.0521,0,0,0,0,0,0,-0.026,-0.028,-0.0291,-0.0294,-0.0277,-0.0311,-0.0316,-0.0317,-0.0365,-0.0371,-0.0334,-0.0335,-0.0402,-0.0408,-0.0415,-0.0443,-0.0438,-0.0441,-0.0443,-0.0521,-0.0521,-0.0521,0,0,0,0,0,0,-0.026,-0.0261,-0.0289,-0.0284,-0.0289,-0.0311,-0.0313,-0.0318,-0.0337,-0.0364,-0.0371,-0.0347,-0.0402,-0.041,-0.0426,-0.0446,-0.0443,-0.0446,-0.0521,-0.0521,-0.0521,-0.0506,0,0,0,0,0,0,-0.0259,-0.0261,-0.0265,-0.0283,-0.0288,-0.0311,-0.0313,-0.0319,-0.0334,-0.0336,-0.0378,-0.0383,-0.0402,-0.042,-0.0429,-0.0451,-0.0448,-0.052,-0.0521,-0.0521,-0.0506,-0.0505,-0.0505,0,0,0,0,0,-0.0259,-0.0271,-0.0265,-0.0267,-0.0291,-0.0311,-0.0317,-0.0335,-0.0335,-0.035,-0.0358,-0.0382,-0.043,-0.0423,-0.0432,-0.0456,-0.052,-0.0521,-0.0521,-0.0506,-0.0505,-0.0505,0,0,0,0,0,0,-0.0275,-0.0275,-0.027,-0.0282,-0.0292,-0.0314,-0.0329,-0.0336,-0.0358,-0.0357,-0.038,-0.0387,-0.0405,-0.0431,-0.0423,-0.0479,-0.0482,-0.0484,-0.0467,-0.0467,-0.0466,-0.0477,-0.0451,0,0,0,0,0,-0.0275,-0.0282,-0.0284,-0.0296,-0.0297,-0.0312,-0.0324,-0.0332,-0.0347,-0.0357,-0.0389,-0.0411,-0.0417,-0.0439,-0.0457,-0.0493,-0.0473,-0.0516,-0.0515,-0.0515,-0.0529,-0.0504,-0.0502,-0.0523,-0.0523,-0.0523,0,0,-0.0284,-0.0285,-0.0289,-0.0299,-0.0308,-0.0324,-0.032,-0.0337,-0.0364,-0.0361,-0.0415,-0.0407,-0.0421,-0.0448,-0.0463,-0.0475,-0.0489,-0.0515,-0.0515,-0.053,-0.0504,-0.0502,-0.05,-0.0523,-0.0523,-0.0523,0,0,-0.0307,-0.0303,-0.0316,-0.0324,-0.033,-0.0338,-0.0339,-0.0365,-0.0389,-0.0426,-0.0413,-0.0416,-0.0468,-0.047,-0.0476,-0.0488,-0.0474,-0.0496,-0.0522,-0.0496,-0.0494,-0.0492,-0.0418,-0.041,-0.0512,-0.0512,-0.0512,0,-0.0315,-0.0334,-0.0325,-0.034,-0.0351,-0.0342,-0.0363,-0.0387,-0.0422,-0.0437,-0.0447,-0.0471,-0.0484,-0.0483,-0.0485,-0.0491,-0.045,-0.0519,-0.0494,-0.0492,-0.049,-0.0416,-0.0407,-0.0511,-0.0511,-0.0511,-0.0511,0,-0.0349,-0.0364,-0.0373,-0.0385,-0.0395,-0.0413,-0.0425,-0.0447,-0.0469,-0.0491,-0.0508,-0.0511,-0.0522,-0.0525,-0.0514,-0.0505,-0.0465,-0.048,-0.0492,-0.0487,-0.0408,-0.0399,-0.051,-0.051,-0.0511,-0.0511,0,0,-0.0362,-0.0391,-0.0395,-0.0409,-0.0421,-0.0433,-0.0462,-0.0486,-0.0499,-0.0539,-0.0556,-0.0569,-0.0554,-0.0558,-0.0534,-0.0525,-0.046,-0.05,-0.0499,-0.042,-0.0353,-0.0328,-0.0314,-0.0459,-0.0459,-0.0458,-0.0286,0,-0.0391,-0.0433,-0.0439,-0.0477,-0.0496,-0.0491,-0.0519,-0.0535,-0.0553,-0.0569,-0.0565,-0.057,-0.0571,-0.0553,-0.0544,-0.0471,-0.0443,-0.0503,-0.0378,-0.0374,-0.0347,-0.0307,-0.0457,-0.0279,-0.0277,-0.0275,-0.0274,0,-0.0421,-0.0447,-0.0494,-0.0521,-0.0527,-0.0548,-0.0563,-0.0586,-0.0587,-0.0599,-0.0593,-0.0575,-0.0541,-0.0552,-0.0454,-0.0483,-0.0425,-0.0381,-0.0374,-0.0359,-0.0334,-0.0298,-0.0258,-0.0259,-0.026,-0.0261,-0.0262,0,-0.0441,-0.0482,-0.0523,-0.0535,-0.0564,-0.0582,-0.0592,-0.06,-0.0607,-0.06,-0.058,-0.0557,-0.0513,-0.0465,-0.0375,-0.0403,-0.0253,-0.0282,-0.0201,-0.0195,-0.0277,-0.0282,-0.0227,-0.0227,-0.0227,-0.0228,-0.0228,0,-0.047,-0.0502,-0.0538,-0.0564,-0.06,-0.0606,-0.063,-0.0636,-0.0618,-0.0598,-0.0588,-0.054,-0.0491,-0.0398,-0.0346,-0.0223,-0.0224,-0.019,-0.0158,-0.0267,-0.0273,-0.0267,-0.0274,-0.0221,-0.0223,-0.0224,-0.0225,0,-0.0488,-0.0515,-0.0561,-0.0602,-0.0615,-0.064,-0.0646,-0.0645,-0.0627,-0.0585,-0.057,-0.0497,-0.038,-0.0307,-0.0191,-0.016,-0.0067,-0.0028,-0.0096,-0.0072,-0.0028,-0.0036,0.0079,0.0082,0.0083,0.0085,0.0086,0,-0.0504,-0.0532,-0.0589,-0.0609,-0.0634,-0.066,-0.0666,-0.066,-0.0638,-0.0547,-0.051,-0.0392,-0.0336,-0.012,-0.0082,0.0043,0.0032,0.0098,-0.0031,-0.0021,-0.0001,-0.0012,-0.0022,0.0089,0.009,0.009,0.009,0,-0.0528,-0.0551,-0.0587,-0.0626,-0.065,-0.0658,-0.0659,-0.0635,-0.0589,-0.0569,-0.042,-0.0322,-0.0181,-0.0083,0.0026,0.0094,0.0056,0.0116,0.0111,-0.0009,-0.0008,0.0008,-0.0004,0.0097,0.0096,0.0095,0.0095,0,-0.054,-0.0565,-0.0604,-0.0632,-0.0653,-0.0635,-0.0643,-0.0579,-0.0544,-0.0438,-0.038,-0.0248,-0.0174,-0.0051,0.0044,0.0119,0.01,0.0097,0.0092,0.0085,0.0002,-0.0,0.0148,0,0,0,0,0,-0.0544,-0.0565,-0.0596,-0.062,-0.0632,-0.0637,-0.0617,-0.0608,-0.0555,-0.044,-0.0404,-0.0272,-0.0111,-0.0048,0.0034,0.0027,0.0082,0.0121,0.0067,0.0132,0.0125,0.0023,0,0,0,0,0,0,-0.0548,-0.0583,-0.0593,-0.0588,-0.0595,-0.0595,-0.058,-0.0549,-0.0479,-0.0417,-0.0329,-0.0267,-0.0122,-0.0154,0.0033,0.0054,0.0028,0.0192,0.0194,0.0136,0.0129,0.0123,0.0016,0,0,0,0,0]}]]